This is the latest recevied weather packets stored in our database for station/object K3SV. If no packets are shown the sender has not sent any weather packets the latest 10 day(s).
| Time | Temp. | Humidity | Pressure | Rain* | Wind** | Luminosity | Snow |
|---|---|---|---|---|---|---|---|
| 1777731433 | 26.67° C | 82% | 1011.6 hPa | 0 mm | - | 332 W/m² | - |
| 1777731132 | 26.11° C | 82% | 1011.3 hPa | 0 mm | - | 233 W/m² | - |
| 1777730525 | 26.11° C | 82% | 1011.5 hPa | 0 mm | - | 252 W/m² | - |
| 1777730221 | 25.56° C | 83% | 1011.6 hPa | 0 mm | - | 287 W/m² | - |
| 1777729918 | 25.56° C | 83% | 1011.4 hPa | 0 mm | - | 123 W/m² | - |
| 1777729615 | 25.56° C | 83% | 1011.4 hPa | 0 mm | - | 309 W/m² | - |
| 1777729311 | 25.56° C | 84% | 1011.2 hPa | 0 mm | - | 341 W/m² | - |
| 1777729008 | 25° C | 85% | 1011 hPa | 0 mm | - | 331 W/m² | - |
| 1777728705 | 25.56° C | 84% | 1011 hPa | 0 mm | - | 298 W/m² | - |
| 1777728401 | 25° C | 85% | 1011.1 hPa | 0 mm | - | 259 W/m² | - |
| 1777728098 | 25° C | 85% | 1010.8 hPa | 0 mm | - | 272 W/m² | - |
| 1777727796 | 25° C | 85% | 1010.9 hPa | 0 mm | - | 266 W/m² | - |
| 1777727492 | 24.44° C | 87% | 1010.7 hPa | 0 mm | - | 248 W/m² | - |
| 1777727190 | 24.44° C | 87% | 1010.6 hPa | 0 mm | - | 172 W/m² | - |
| 1777726888 | 24.44° C | 88% | 1010.7 hPa | 0 mm | - | 211 W/m² | - |
| 1777726584 | 23.89° C | 89% | 1010.5 hPa | 0 mm | - | 209 W/m² | - |
| 1777726281 | 23.89° C | 91% | 1010.3 hPa | 0 mm | - | 270 W/m² | - |
| 1777725977 | 23.33° C | 92% | 1010.4 hPa | 0 mm | - | 202 W/m² | - |
| 1777725674 | 22.78° C | 94% | 1010.3 hPa | 0 mm | - | 215 W/m² | - |
| 1777725373 | 22.78° C | 96% | 1010.4 hPa | 0 mm | - | 176 W/m² | - |
| 1777725069 | 22.22° C | 98% | 1010.3 hPa | 0 mm | - | 153 W/m² | - |
| 1777724766 | 22.22° C | 99% | 1010.4 hPa | 0 mm | - | 132 W/m² | - |
| 1777724464 | 21.67° C | 99% | 1010.2 hPa | 0 mm | - | 122 W/m² | - |
| 1777724162 | 21.67° C | 99% | 1010.2 hPa | 0 mm | - | 93 W/m² | - |
| 1777723859 | 21.67° C | 99% | 1010.1 hPa | 0 mm | - | 101 W/m² | - |
* Rain latest hour (hover to see other rain measurements)
** Current wind speed in m/s (hover to see current wind gust speed)